"Timestamp","TZ","WindDir_Mean (deg)","WindSpd_Mean (km/h)","WindSpd_Min (km/h)","WindSpd_Max (km/h)","Temp_Mean (deg)","RH_Mean (%)","MSLP_Mean (hPa)","Rain_Acc (mm)","Rain_Intensity (mm/h)","Hail_Acc (hits/cm2)","Hail_Intensity (hits/cm2hr)","Solar_Mean (W/m2)"
2018/06/25 00:00:00.000,n,121,1.08,0.36,1.44,11.9,71.9,1026.02,0,0,0,0,0.022659
2018/06/25 00:01:00.000,n,118,1.44,0,2.16,11.9,71.8,1026.02,0,0,0,0,0.026169
2018/06/25 00:02:00.000,n,111,1.44,1.08,1.8,11.8,71.8,1026.12,0,0,0,0,0.031395
2018/06/25 00:03:00.000,n,130,2.52,1.8,3.96,11.9,71.8,1026.02,0,0,0,0,0.022659
2018/06/25 00:04:00.006,n,193,3.24,2.88,3.6,11.9,71.7,1026.02,0,0,0,0,0.026169
2018/06/25 00:05:00.003,n,246,0.36,0.36,0.72,11.9,71.6,1026.02,0,0,0,0,0.022659
2018/06/25 00:06:00.000,n,317,1.08,0.72,1.8,11.8,71.7,1026.02,0,0,0,0,0.023537
2018/06/25 00:07:00.000,n,140,3.6,3.6,4.32,11.8,71.9,1026.02,0,0,0,0,0.028801
2018/06/25 00:08:00.010,n,137,2.52,1.8,2.88,11.8,72.1,1025.92,0,0,0,0,0.024452
2018/06/25 00:09:00.008,n,140,2.88,2.52,3.24,11.8,72.4,1025.92,0,0,0,0,0.02182
2018/06/25 00:10:00.000,n,146,1.8,1.08,2.16,11.8,72.6,1025.92,0,0,0,0,0.023537
2018/06/25 00:11:00.002,n,159,2.16,1.44,2.52,11.7,72.8,1025.92,0,0,0,0,0.027885
2018/06/25 00:12:00.000,n,132,1.44,1.08,1.8,11.7,73,1025.92,0,0,0,0,0.027008
2018/06/25 00:13:00.000,n,137,2.52,2.16,2.88,11.7,73.1,1025.92,0,0,0,0,0.026131
2018/06/25 00:14:00.006,n,175,2.52,0.72,3.96,11.6,73.1,1025.92,0,0,0,0,0.032272
2018/06/25 00:15:00.003,n,163,0.36,0,0.72,11.6,73,1025.92,0,0,0,0,0.02964
2018/06/25 00:16:00.000,n,182,3.24,2.88,3.6,11.6,73.1,1025.92,0,0,0,0,0.033989
2018/06/25 00:17:00.014,n,140,2.16,0.72,2.88,11.6,73.1,1025.92,0,0,0,0,0.030479
2018/06/25 00:18:00.011,n,160,4.32,3.96,5.04,11.6,73.3,1025.92,0,0,0,0,0.031357
2018/06/25 00:19:00.000,n,133,2.88,2.52,3.6,11.6,73.2,1025.92,0,0,0,0,0.031357
2018/06/25 00:20:00.000,n,149,4.32,4.32,4.68,11.6,73.3,1025.92,0,0,0,0,0.030479
2018/06/25 00:21:00.000,n,130,3.6,2.88,4.32,11.5,73.4,1025.92,0,0,0,0,0.023537
2018/06/25 00:22:00.003,n,201,2.52,1.8,3.24,11.5,73.4,1025.92,0,0,0,0,0.027008
2018/06/25 00:23:00.000,n,246,1.08,0.72,1.8,11.5,73.2,1025.92,0,0,0,0,0.026131
2018/06/25 00:24:00.000,n,264,2.88,2.52,3.6,11.5,73.1,1025.92,0,0,0,0,0.027008
2018/06/25 00:25:00.011,n,135,2.88,2.52,3.24,11.5,73,1025.92,0,0,0,0,0.026131
2018/06/25 00:26:00.008,n,213,1.08,0.36,2.52,11.5,72.9,1025.92,0,0,0,0,0.031357
2018/06/25 00:27:00.005,n,299,0.72,0.36,1.44,11.5,72.9,1025.92,0,0,0,0,0.024414
2018/06/25 00:28:00.002,n,234,1.08,0.36,1.8,11.5,72.8,1025.92,0,0,0,0,0.025291
2018/06/25 00:29:00.000,n,161,3.6,3.24,3.96,11.5,72.8,1025.92,0,0,0,0,0.021782
2018/06/25 00:30:00.000,n,277,0.72,0.36,0.72,11.5,72.6,1025.92,0,0,0,0,0.022659
2018/06/25 00:31:00.000,n,53,0.72,0.36,1.08,11.5,72.6,1025.92,0,0,0,0,0.021782
2018/06/25 00:32:00.007,n,140,3.24,2.88,3.24,11.5,72.5,1025.92,0,0,0,0,0.023537
2018/06/25 00:33:00.005,n,125,1.08,0.36,2.88,11.5,72.4,1025.92,0,0,0,0,0.023537
2018/06/25 00:34:00.002,n,135,1.44,1.08,1.8,11.5,72.4,1025.92,0,0,0,0,0.022659
2018/06/25 00:35:00.000,n,120,3.24,2.88,3.6,11.5,72.5,1025.92,0,0,0,0,0.020065
2018/06/25 00:36:00.012,n,190,5.76,4.32,6.84,11.5,72.2,1025.92,0,0,0,0,0.026131
2018/06/25 00:37:00.000,n,125,2.52,2.16,2.88,11.6,72.1,1025.92,0,0,0,0,0.020065
2018/06/25 00:38:00.000,n,139,2.52,2.16,2.88,11.6,72,1025.92,0,0,0,0,0.020943
2018/06/25 00:39:00.000,n,150,3.6,3.24,4.32,11.6,72,1025.92,0,0,0,0,0.01915
2018/06/25 00:40:00.002,n,131,3.96,2.88,4.68,11.6,72,1025.92,0,0,0,0,0.021782
2018/06/25 00:41:00.000,n,156,1.44,0.72,1.44,11.6,71.9,1025.92,0,0,0,0,0.017433
2018/06/25 00:42:00.000,n,173,2.16,1.44,2.88,11.6,71.9,1025.92,0,0,0,0,0.016594
2018/06/25 00:43:00.011,n,260,3.24,2.16,3.96,11.6,71.8,1025.82,0,0,0,0,0.018311
2018/06/25 00:44:00.008,n,227,5.04,4.32,6.84,11.6,71.9,1025.82,0,0,0,0,0.01915
2018/06/25 00:45:00.005,n,235,2.16,1.44,2.16,11.6,71.7,1025.82,0,0,0,0,0.015678
2018/06/25 00:46:00.002,n,317,0.72,0,1.44,11.6,71.6,1025.82,0,0,0,0,0.01915
2018/06/25 00:47:00.000,n,142,1.08,0.72,1.44,11.6,71.5,1025.82,0,0,0,0,0.015678
2018/06/25 00:48:00.000,n,131,1.8,1.08,2.16,11.6,71.7,1025.82,0,0,0,0,0.020065
2018/06/25 00:49:00.000,n,163,3.24,3.24,3.6,11.7,71.5,1025.82,0,0,0,0,0.015678
2018/06/25 00:50:00.005,n,133,3.24,2.88,3.24,11.7,71.4,1025.82,0,0,0,0,0.021782
2018/06/25 00:51:00.003,n,126,2.16,1.8,2.16,11.7,71.4,1025.82,0,0,0,0,0.020943
2018/06/25 00:52:00.000,n,143,1.8,0.72,2.52,11.7,71.3,1025.82,0,0,0,0,0.014801
2018/06/25 00:53:00.014,n,154,2.88,2.52,3.24,11.6,71.3,1025.92,0,0,0,0,0.017433
2018/06/25 00:54:00.011,n,162,3.24,2.16,3.96,11.6,71.3,1025.92,0,0,0,0,0.027046
2018/06/25 00:55:00.000,n,158,1.44,0.72,1.8,11.6,71.4,1025.92,0,0,0,0,0.035782
2018/06/25 00:56:00.003,n,277,1.08,1.08,1.44,11.6,71.4,1025.92,0,0,0,0,0.036621
2018/06/25 00:57:00.000,n,293,1.44,1.44,1.8,11.6,71.5,1025.92,0,0,0,0,0.03315
2018/06/25 00:58:00.000,n,107,0.72,0,1.08,11.6,71.6,1025.92,0,0,0,0,0.03315
2018/06/25 00:59:00.000,n,151,1.08,0.36,2.88,11.5,71.6,1025.92,0,0,0,0,0.031395
2018/06/25 01:00:00.009,n,203,3.96,3.24,4.68,11.5,71.5,1025.92,0,0,0,0,0.038338
2018/06/25 01:01:00.006,n,176,2.16,1.8,2.88,11.5,71.6,1025.92,0,0,0,0,0.036621
2018/06/25 01:02:00.003,n,237,2.16,1.8,2.52,11.5,71.7,1025.92,0,0,0,0,0.040131
2018/06/25 01:03:00.016,n,164,2.88,2.52,3.24,11.5,71.7,1025.92,0,0,0,0,0.033989
2018/06/25 01:04:00.000,n,122,2.16,1.8,2.52,11.5,71.8,1026.02,0,0,0,0,0.030518
2018/06/25 01:05:00.000,n,184,1.8,1.44,2.16,11.5,71.9,1026.02,0,0,0,0,0.028801
2018/06/25 01:06:00.000,n,226,3.24,2.88,3.96,11.5,71.9,1026.02,0,0,0,0,0.038338
2018/06/25 01:07:00.004,n,235,1.44,1.08,1.8,11.5,71.8,1026.02,0,0,0,0,0.030518
2018/06/25 01:08:00.001,n,169,3.6,2.88,3.96,11.4,71.9,1026.02,0,0,0,0,0.032272
2018/06/25 01:09:00.000,n,136,2.16,1.8,2.16,11.4,71.9,1026.02,0,0,0,0,0.027924
2018/06/25 01:10:00.012,n,177,4.68,4.68,5.4,11.4,71.9,1026.02,0,0,0,0,0.02964
2018/06/25 01:11:00.009,n,145,1.8,0.36,3.6,11.5,71.8,1026.02,0,0,0,0,0.030518
2018/06/25 01:12:00.006,n,242,1.8,1.08,2.16,11.5,71.7,1026.02,0,0,0,0,0.030518
2018/06/25 01:13:00.000,n,144,2.16,1.44,2.88,11.5,71.6,1026.02,0,0,0,0,0.02964
2018/06/25 01:14:00.000,n,172,7.2,6.84,7.92,11.4,71.6,1026.02,0,0,0,0,0.031395
2018/06/25 01:15:00.000,n,145,2.88,2.52,3.24,11.4,71.6,1026.02,0,0,0,0,0.026169
2018/06/25 01:16:00.000,n,286,1.8,1.08,1.8,11.4,71.4,1025.92,0,0,0,0,0.033989
2018/06/25 01:17:00.000,n,209,0.72,0.36,1.8,11.4,71.4,1025.92,0,0,0,0,0.028801
2018/06/25 01:18:00.006,n,205,0.72,0.36,1.08,11.4,71.3,1026.02,0,0,0,0,0.02964
2018/06/25 01:19:00.004,n,181,2.52,2.16,2.88,11.4,71.4,1026.02,0,0,0,0,0.031395
2018/06/25 01:20:00.001,n,153,2.88,2.88,3.6,11.4,71.4,1026.02,0,0,0,0,0.031395
2018/06/25 01:21:00.015,n,150,3.24,3.24,3.6,11.4,71.4,1026.02,0,0,0,0,0.02964
2018/06/25 01:22:00.000,n,159,2.52,2.16,3.24,11.4,71.4,1026.02,0,0,0,0,0.035782
2018/06/25 01:23:00.000,n,147,4.32,4.32,4.68,11.4,71.4,1026.02,0,0,0,0,0.034866
2018/06/25 01:24:00.000,n,195,1.44,0.72,2.16,11.4,71.7,1026.02,0,0,0,0,0.032272
2018/06/25 01:25:00.004,n,155,4.32,3.6,5.76,11.4,71.4,1026.02,0,0,0,0,0.028801
2018/06/25 01:26:00.001,n,154,2.88,2.16,4.32,11.4,71.3,1026.02,0,0,0,0,0.028801
2018/06/25 01:27:00.000,n,180,5.76,4.68,6.84,11.4,71.4,1026.02,0,0,0,0,0.028801
2018/06/25 01:28:00.012,n,123,0.72,0.36,2.16,11.4,71.5,1025.92,0,0,0,0,0.035782
2018/06/25 01:29:00.009,n,26,1.8,1.08,3.6,11.4,71.4,1025.92,0,0,0,0,0.02964
2018/06/25 01:30:00.006,n,277,2.52,1.44,3.6,11.4,71.3,1025.92,0,0,0,0,0.032272
2018/06/25 01:31:00.000,n,144,2.52,0.72,3.6,11.4,71.3,1025.92,0,0,0,0,0.028801
2018/06/25 01:32:00.000,n,105,2.52,1.8,3.6,11.4,71.4,1025.92,0,0,0,0,0.033989
2018/06/25 01:33:00.000,n,299,2.88,1.44,3.6,11.3,71.6,1025.92,0,0,0,0,0.02964
2018/06/25 01:34:00.000,n,132,3.96,3.24,4.68,11.4,71.7,1025.92,0,0,0,0,0.030518
2018/06/25 01:35:00.007,n,143,2.16,1.44,3.24,11.4,71.4,1025.92,0,0,0,0,0.028801
2018/06/25 01:36:00.004,n,255,0.36,0,0.72,11.3,71.5,1025.92,0,0,0,0,0.02964
2018/06/25 01:37:00.001,n,159,2.88,1.08,3.96,11.3,71.6,1025.92,0,0,0,0,0.026169
2018/06/25 01:38:00.000,n,183,0.72,0.36,1.44,11.3,71.8,1025.92,0,0,0,0,0.033989
2018/06/25 01:39:00.011,n,264,1.8,1.44,2.16,11.3,72,1025.92,0,0,0,0,0.027924
2018/06/25 01:40:00.000,n,83,1.44,0,2.88,11.3,72.1,1025.92,0,0,0,0,0.02964
2018/06/25 01:41:00.000,n,194,1.44,0.72,2.16,11.2,72.2,1025.92,0,0,0,0,0.032272
2018/06/25 01:42:00.003,n,153,2.16,0.72,3.96,11.2,72.4,1025.92,0,0,0,0,0.027046
2018/06/25 01:43:00.000,n,31,2.16,1.8,2.16,11.2,72.5,1025.92,0,0,0,0,0.030518
2018/06/25 01:44:00.000,n,172,1.08,0.36,1.44,11.2,72.6,1025.92,0,0,0,0,0.027924
2018/06/25 01:45:00.000,n,209,2.52,1.8,3.24,11.2,72.7,1025.92,0,0,0,0,0.027924
2018/06/25 01:46:00.009,n,148,1.8,1.44,2.16,11.1,72.7,1025.82,0,0,0,0,0.026169
2018/06/25 01:47:00.006,n,173,2.16,2.16,2.52,11.1,72.9,1025.82,0,0,0,0,0.024452
2018/06/25 01:48:00.003,n,144,4.32,3.24,5.4,11.1,73.1,1025.82,0,0,0,0,0.026169
2018/06/25 01:49:00.000,n,127,2.16,1.8,2.52,11.1,73.2,1025.82,0,0,0,0,0.026169
2018/06/25 01:50:00.000,n,158,8.28,7.92,8.64,11.1,73.3,1025.82,0,0,0,0,0.026169
2018/06/25 01:51:00.000,n,231,1.44,1.44,1.8,11.1,73.3,1025.82,0,0,0,0,0.027924
2018/06/25 01:52:00.000,n,158,1.8,1.08,2.52,11.1,73.5,1025.82,0,0,0,0,0.025291
2018/06/25 01:53:00.004,n,156,1.44,0.72,2.16,11,73.4,1025.82,0,0,0,0,0.025291
2018/06/25 01:54:00.001,n,194,2.52,1.8,2.52,11,73.5,1025.82,0,0,0,0,0.027046
2018/06/25 01:55:00.000,n,196,0.72,0.36,1.08,11,73.4,1025.82,0,0,0,0,0.027924
2018/06/25 01:56:00.012,n,189,0.72,0.72,1.08,11,73.3,1025.82,0,0,0,0,0.028801
2018/06/25 01:57:00.009,n,68,1.8,0.72,3.24,11,73.6,1025.82,0,0,0,0,0.032272
2018/06/25 01:58:00.000,n,44,1.08,0.72,1.8,11,73.4,1025.72,0,0,0,0,0.027046
2018/06/25 01:59:00.002,n,141,1.8,1.44,2.52,11.1,73.2,1025.72,0,0,0,0,0.025291
2018/06/25 02:00:00.000,n,160,7.2,3.6,9.72,11.1,72.9,1025.72,0,0,0,0,0.027046
2018/06/25 02:01:00.000,n,128,2.16,1.08,3.24,11.1,72.8,1025.72,0,0,0,0,0.027046
2018/06/25 02:02:00.000,n,205,0.72,0.72,1.08,11.1,72.7,1025.72,0,0,0,0,0.025291
2018/06/25 02:03:00.009,n,164,1.8,1.08,2.52,11.1,72.6,1025.72,0,0,0,0,0.027046
2018/06/25 02:04:00.006,n,192,4.32,3.6,5.76,11.1,72.7,1025.82,0,0,0,0,0.026169
2018/06/25 02:05:00.003,n,257,1.08,0.36,1.08,11.1,72.5,1025.72,0,0,0,0,0.027046
2018/06/25 02:06:00.000,n,121,3.6,2.88,4.32,11.1,72.6,1025.82,0,0,0,0,0.023537
2018/06/25 02:07:00.000,n,356,2.52,1.08,3.24,11.1,72.6,1025.72,0,0,0,0,0.027046
2018/06/25 02:08:00.000,n,302,0.72,0,1.8,11,72.6,1025.72,0,0,0,0,0.026169
2018/06/25 02:09:00.000,n,159,1.8,1.44,2.52,11.1,72.8,1025.82,0,0,0,0,0.027046
2018/06/25 02:10:00.005,n,117,1.44,0.36,2.52,11.1,72.7,1025.82,0,0,0,0,0.030518
2018/06/25 02:11:00.002,n,281,6.48,3.96,7.2,11,72.5,1025.82,0,0,0,0,0.02964
2018/06/25 02:12:00.000,n,139,3.6,0.36,5.04,11,72.6,1025.82,0,0,0,0,0.031395
2018/06/25 02:13:00.012,n,132,1.08,0.36,2.16,11,72.5,1025.82,0,0,0,0,0.027924
2018/06/25 02:14:00.009,n,76,3.96,3.6,3.96,11,72.7,1025.82,0,0,0,0,0.027046
2018/06/25 02:15:00.005,n,74,1.44,0.72,2.88,11.1,72.6,1025.82,0,0,0,0,0.026169
2018/06/25 02:16:00.000,n,186,2.52,2.16,2.88,11.1,72.2,1025.82,0,0,0,0,0.03315
2018/06/25 02:17:00.000,n,144,1.44,1.44,1.8,11.1,72.4,1025.82,0,0,0,0,0.026169
2018/06/25 02:18:00.000,n,135,1.08,0.36,1.44,11.1,72.4,1025.82,0,0,0,0,0.033989
2018/06/25 02:19:00.000,n,154,2.16,1.08,3.24,11.1,72.2,1025.82,0,0,0,0,0.027924
2018/06/25 02:20:00.000,n,270,6.48,5.04,7.56,11.1,72,1025.72,0,0,0,0,0.03315
2018/06/25 02:21:00.006,n,243,3.6,3.24,4.32,11.1,71.9,1025.72,0,0,0,0,0.027924
2018/06/25 02:22:00.004,n,152,0.72,0.72,0.72,11,72,1025.72,0,0,0,0,0.028801
2018/06/25 02:23:00.000,n,147,3.6,2.52,4.68,11,72.1,1025.72,0,0,0,0,0.032272
2018/06/25 02:24:00.013,n,259,4.32,3.96,4.68,11,72,1025.62,0,0,0,0,0.03315
2018/06/25 02:25:00.000,n,253,3.96,3.24,4.68,10.9,71.9,1025.62,0,0,0,0,0.030518
2018/06/25 02:26:00.000,n,229,1.8,1.08,2.16,10.9,72,1025.72,0,0,0,0,0.02964
2018/06/25 02:27:00.005,n,302,0.72,0.36,1.44,10.9,72.1,1025.72,0,0,0,0,0.031395
2018/06/25 02:28:00.002,n,273,2.16,1.44,2.88,10.9,72.1,1025.72,0,0,0,0,0.027046
2018/06/25 02:29:00.000,n,13,2.16,1.8,3.24,10.8,72.2,1025.72,0,0,0,0,0.027924
2018/06/25 02:30:00.000,n,308,3.24,2.52,3.6,10.9,72.2,1025.72,0,0,0,0,0.026169
2018/06/25 02:31:00.010,n,298,1.44,1.08,1.8,10.9,72.5,1025.72,0,0,0,0,0.026169
2018/06/25 02:32:00.007,n,340,1.8,1.44,2.52,10.9,72.3,1025.72,0,0,0,0,0.027046
2018/06/25 02:33:00.004,n,246,1.8,0.36,2.88,10.9,72.1,1025.72,0,0,0,0,0.024452
2018/06/25 02:34:00.002,n,159,1.44,0.72,1.8,10.9,72.3,1025.72,0,0,0,0,0.027924
2018/06/25 02:35:00.000,n,221,1.44,1.08,1.8,10.9,72.2,1025.72,0,0,0,0,0.025291
2018/06/25 02:36:00.000,n,273,1.44,1.08,2.52,10.9,72.2,1025.72,0,0,0,0,0.028801
2018/06/25 02:37:00.000,n,35,2.16,1.8,2.52,10.9,72.6,1025.72,0,0,0,0,0.027924
2018/06/25 02:38:00.008,n,5,2.16,1.8,2.88,10.9,72.3,1025.72,0,0,0,0,0.026169
2018/06/25 02:39:00.005,n,234,2.52,1.44,3.6,10.9,72.2,1025.62,0,0,0,0,0.030518
2018/06/25 02:40:00.002,n,285,2.88,2.16,3.6,10.9,72.1,1025.72,0,0,0,0,0.026169
2018/06/25 02:41:00.000,n,206,1.8,0.72,2.52,10.8,72,1025.72,0,0,0,0,0.031395
2018/06/25 02:42:00.013,n,315,3.24,3.24,3.96,10.8,72.1,1025.72,0,0,0,0,0.031395
2018/06/25 02:43:00.000,n,275,5.76,4.68,6.48,10.8,72,1025.72,0,0,0,0,0.024452
2018/06/25 02:44:00.000,n,250,3.24,2.16,3.96,10.8,72,1025.72,0,0,0,0,0.024452
2018/06/25 02:45:00.000,n,281,3.24,1.8,4.32,10.7,72,1025.72,0,0,0,0,0.027924
2018/06/25 02:46:00.002,n,185,2.88,2.16,3.96,10.7,72.1,1025.72,0,0,0,0,0.026169
2018/06/25 02:47:00.000,n,111,3.96,3.24,4.68,10.7,72.2,1025.72,0,0,0,0,0.024452
2018/06/25 02:48:00.000,n,163,0.72,0,1.44,10.7,72.2,1025.72,0,0,0,0,0.03315
2018/06/25 02:49:00.009,n,242,2.52,1.8,2.88,10.7,72.1,1025.72,0,0,0,0,0.027046
2018/06/25 02:50:00.007,n,223,6.84,6.12,7.92,10.7,72,1025.72,0,0,0,0,0.025291
2018/06/25 02:51:00.004,n,292,1.44,1.08,1.8,10.7,72.1,1025.72,0,0,0,0,0.027046
2018/06/25 02:52:00.001,n,113,1.08,0.72,1.44,10.7,72,1025.72,0,0,0,0,0.023537
2018/06/25 02:53:00.000,n,175,2.52,2.16,3.24,10.7,72,1025.72,0,0,0,0,0.027046
2018/06/25 02:54:00.000,n,267,4.68,3.96,5.04,10.7,72,1025.72,0,0,0,0,0.026169
2018/06/25 02:55:00.000,n,318,1.8,1.08,2.52,10.7,72,1025.72,0,0,0,0,0.02964
2018/06/25 02:56:00.006,n,48,1.08,0.36,1.8,10.7,72.1,1025.82,0,0,0,0,0.02964
2018/06/25 02:57:00.003,n,240,2.16,1.08,2.52,10.7,72.2,1025.82,0,0,0,0,0.02964
2018/06/25 02:58:00.000,n,61,0.36,0.36,0.72,10.8,72,1025.82,0,0,0,0,0.025291
2018/06/25 02:59:00.012,n,271,4.32,3.6,5.04,10.8,71.8,1025.82,0,0,0,0,0.027046
2018/06/25 03:00:00.009,n,277,2.88,1.8,3.24,10.8,71.7,1025.82,0,0,0,0,0.024452
2018/06/25 03:01:00.000,n,194,0.72,0.36,1.44,10.8,71.7,1025.82,0,0,0,0,0.027046
2018/06/25 03:02:00.000,n,84,2.88,1.8,3.24,10.8,71.7,1025.82,0,0,0,0,0.024452
2018/06/25 03:03:00.001,n,17,0.72,0.36,1.08,10.8,71.6,1025.82,0,0,0,0,0.023537
2018/06/25 03:04:00.000,n,295,2.88,2.16,3.6,10.8,71.4,1025.82,0,0,0,0,0.026169
2018/06/25 03:05:00.000,n,212,2.16,1.44,3.24,10.8,71.6,1025.82,0,0,0,0,0.028801
2018/06/25 03:06:00.009,n,181,1.8,1.08,2.52,10.8,71.5,1025.82,0,0,0,0,0.027046
2018/06/25 03:07:00.006,n,253,2.88,2.16,3.6,10.8,71.4,1025.82,0,0,0,0,0.022659
2018/06/25 03:08:00.003,n,117,1.44,0.36,3.24,10.8,71.5,1025.82,0,0,0,0,0.025291
2018/06/25 03:09:00.000,n,299,3.96,3.24,5.04,10.9,71.1,1025.82,0,0,0,0,0.025291
2018/06/25 03:10:00.000,n,204,0.72,0.36,1.08,10.9,70.9,1025.82,0,0,0,0,0.024452
2018/06/25 03:11:00.000,n,286,2.52,1.8,3.24,10.9,70.8,1025.82,0,0,0,0,0.026169
2018/06/25 03:12:00.000,n,227,2.16,1.08,2.88,10.8,70.8,1025.92,0,0,0,0,0.025291
2018/06/25 03:13:00.006,n,263,2.52,1.44,3.96,10.8,70.8,1025.92,0,0,0,0,0.030518
2018/06/25 03:14:00.004,n,267,2.16,1.8,2.88,10.8,70.8,1025.92,0,0,0,0,0.020943
2018/06/25 03:15:00.001,n,263,4.68,3.96,5.04,10.8,70.8,1025.92,0,0,0,0,0.024452
2018/06/25 03:16:00.000,n,235,2.52,1.8,3.24,10.8,70.8,1025.92,0,0,0,0,0.030518
2018/06/25 03:17:00.012,n,116,3.24,2.88,3.6,10.8,71.1,1025.92,0,0,0,0,0.030518
2018/06/25 03:18:00.010,n,324,3.6,2.16,4.68,10.9,70.8,1025.92,0,0,0,0,0.030518
2018/06/25 03:19:00.000,n,245,1.08,0.36,2.52,10.9,70.6,1025.92,0,0,0,0,0.030518
2018/06/25 03:20:00.003,n,281,4.32,3.24,5.04,10.8,70.6,1025.92,0,0,0,0,0.031395
2018/06/25 03:21:00.001,n,137,2.16,1.8,3.24,10.8,70.7,1025.92,0,0,0,0,0.028801
2018/06/25 03:22:00.000,n,54,1.8,1.08,2.88,10.8,71.1,1025.92,0,0,0,0,0.030518
2018/06/25 03:23:00.000,n,226,0.72,0.36,1.44,10.8,70.8,1025.92,0,0,0,0,0.027924
2018/06/25 03:24:00.009,n,47,2.88,1.8,3.24,10.9,70.9,1025.92,0,0,0,0,0.02964
2018/06/25 03:25:00.006,n,235,5.04,4.32,5.76,10.9,70.7,1025.92,0,0,0,0,0.023537
2018/06/25 03:26:00.003,n,61,1.44,0.36,2.16,10.9,70.4,1025.82,0,0,0,0,0.024452
2018/06/25 03:27:00.001,n,269,1.8,1.44,2.52,10.9,70.4,1025.82,0,0,0,0,0.027046
2018/06/25 03:28:00.000,n,272,2.16,1.44,2.16,10.9,70.6,1025.82,0,0,0,0,0.025291
2018/06/25 03:29:00.000,n,34,0.72,0.36,1.08,10.8,70.7,1025.82,0,0,0,0,0.033989
2018/06/25 03:30:00.000,n,201,3.6,3.24,4.32,10.9,70.8,1025.92,0,0,0,0,0.028801
2018/06/25 03:31:00.005,n,119,1.8,0.72,3.24,10.9,70.8,1025.92,0,0,0,0,0.027046
2018/06/25 03:32:00.002,n,217,1.44,0.36,2.52,10.9,70.6,1025.92,0,0,0,0,0.028801
2018/06/25 03:33:00.000,n,181,5.76,3.96,7.56,10.9,70.5,1026.02,0,0,0,0,0.026169
2018/06/25 03:34:00.000,n,198,2.16,1.8,2.52,10.9,70.4,1026.02,0,0,0,0,0.028801
2018/06/25 03:35:00.010,n,158,1.8,0.36,3.6,10.9,70.5,1026.02,0,0,0,0,0.027046
2018/06/25 03:36:00.006,n,6,1.08,0.36,1.8,10.9,70.8,1026.02,0,0,0,0,0.027924
2018/06/25 03:37:00.000,n,344,1.08,0.36,1.44,11,70.7,1026.02,0,0,0,0,0.026169
2018/06/25 03:38:00.000,n,131,1.44,0.72,1.8,11,70.3,1026.02,0,0,0,0,0.022659
2018/06/25 03:39:00.000,n,209,0.72,0.36,1.08,11,70.2,1026.02,0,0,0,0,0.026169
2018/06/25 03:40:00.000,n,131,3.6,3.24,3.96,11,70.3,1026.02,0,0,0,0,0.026169
2018/06/25 03:41:00.008,n,170,0.36,0,1.08,11,70.2,1026.02,0,0,0,0,0.026169
2018/06/25 03:42:00.005,n,330,1.8,1.08,2.16,10.9,70.2,1026.02,0,0,0,0,0.027046
2018/06/25 03:43:00.002,n,195,0.36,0.36,1.08,10.9,70,1025.92,0,0,0,0,0.027046
2018/06/25 03:44:00.000,n,29,0.36,0.36,0.72,10.9,70.1,1025.92,0,0,0,0,0.032272
2018/06/25 03:45:00.013,n,301,5.04,4.32,6.12,10.9,70,1025.92,0,0,0,0,0.028801
2018/06/25 03:46:00.000,n,138,2.52,0.72,3.24,10.9,69.9,1026.02,0,0,0,0,0.024452
2018/06/25 03:47:00.000,n,233,2.52,1.08,3.24,10.9,70,1026.02,0,0,0,0,0.03315
2018/06/25 03:48:00.005,n,321,3.6,3.24,4.32,10.9,70,1025.92,0,0,0,0,0.02964
2018/06/25 03:49:00.002,n,27,1.44,0.72,2.16,10.9,69.9,1025.92,0,0,0,0,0.031395
2018/06/25 03:50:00.000,n,194,1.44,0.72,2.16,10.9,69.8,1025.92,0,0,0,0,0.030518
2018/06/25 03:51:00.000,n,229,2.52,1.44,2.88,10.9,69.7,1025.92,0,0,0,0,0.02964
2018/06/25 03:52:00.010,n,286,3.6,2.88,4.68,10.8,69.8,1025.92,0,0,0,0,0.032272
2018/06/25 03:53:00.007,n,96,1.08,0.72,1.8,10.8,70,1025.92,0,0,0,0,0.030518
2018/06/25 03:54:00.004,n,248,3.6,2.52,6.84,10.8,70,1025.92,0,0,0,0,0.02964
2018/06/25 03:55:00.001,n,294,1.44,1.08,1.8,10.8,70.2,1025.92,0,0,0,0,0.030518
2018/06/25 03:56:00.000,n,99,2.52,1.44,3.24,10.8,70.3,1026.02,0,0,0,0,0.030518
2018/06/25 03:57:00.000,n,216,3.24,2.88,3.6,10.8,70.3,1026.02,0,0,0,0,0.031395
2018/06/25 03:58:00.000,n,110,0.72,0.36,1.44,10.8,70.5,1026.02,0,0,0,0,0.027924
2018/06/25 03:59:00.005,n,164,5.04,4.32,5.76,10.8,70.5,1026.02,0,0,0,0,0.031395
2018/06/25 04:00:00.003,n,180,2.16,1.8,2.16,10.8,70.4,1026.02,0,0,0,0,0.02964
2018/06/25 04:01:00.000,n,263,2.52,1.8,2.88,10.8,70.5,1026.02,0,0,0,0,0.025291
2018/06/25 04:02:00.013,n,187,3.96,3.24,4.68,10.8,70.4,1026.02,0,0,0,0,0.028801
2018/06/25 04:03:00.010,n,148,1.08,0.36,1.44,10.8,70.4,1026.12,0,0,0,0,0.02964
2018/06/25 04:04:00.000,n,228,2.88,1.44,3.6,10.8,70.4,1026.12,0,0,0,0,0.02964
2018/06/25 04:05:00.003,n,152,1.44,1.08,2.16,10.8,70.5,1026.12,0,0,0,0,0.031395
2018/06/25 04:06:00.000,n,222,1.44,0.36,2.16,10.7,70.4,1026.12,0,0,0,0,0.02964
2018/06/25 04:07:00.000,n,243,2.88,2.16,3.96,10.7,70.4,1026.12,0,0,0,0,0.027046
2018/06/25 04:08:00.000,n,270,3.24,0.72,5.04,10.7,70.4,1026.12,0,0,0,0,0.02964
2018/06/25 04:09:00.008,n,198,3.24,2.88,3.6,10.7,70.5,1026.12,0,0,0,0,0.024452
2018/06/25 04:10:00.005,n,80,2.88,1.8,3.24,10.7,70.6,1026.12,0,0,0,0,0.028801
2018/06/25 04:11:00.002,n,149,2.52,1.8,3.24,10.7,70.6,1026.12,0,0,0,0,0.027924
2018/06/25 04:12:00.016,n,158,6.12,4.32,7.2,10.7,70.6,1026.22,0,0,0,0,0.027924
2018/06/25 04:13:00.000,n,305,5.4,3.6,7.56,10.7,70.6,1026.22,0,0,0,0,0.027046
2018/06/25 04:14:00.000,n,192,1.8,1.44,2.16,10.7,70.6,1026.22,0,0,0,0,0.027924
2018/06/25 04:15:00.000,n,228,1.44,1.08,2.16,10.7,70.6,1026.22,0,0,0,0,0.02964
2018/06/25 04:16:00.005,n,282,1.08,0.36,1.8,10.7,70.6,1026.22,0,0,0,0,0.027046
2018/06/25 04:17:00.002,n,206,1.8,0.72,2.16,10.7,70.5,1026.22,0,0,0,0,0.022659
2018/06/25 04:18:00.000,n,259,5.4,2.88,7.92,10.7,70.4,1026.22,0,0,0,0,0.027924
2018/06/25 04:19:00.012,n,252,2.88,1.8,3.6,10.7,70.5,1026.22,0,0,0,0,0.028801
2018/06/25 04:20:00.009,n,239,1.44,1.08,1.8,10.7,70.5,1026.22,0,0,0,0,0.03315
2018/06/25 04:21:00.006,n,286,1.08,0.72,1.8,10.7,70.7,1026.22,0,0,0,0,0.027924
2018/06/25 04:22:00.000,n,149,4.32,3.6,5.04,10.7,70.7,1026.22,0,0,0,0,0.031395
2018/06/25 04:23:00.000,n,222,1.08,0.36,1.8,10.7,70.8,1026.22,0,0,0,0,0.032272
2018/06/25 04:24:00.000,n,318,2.88,1.8,4.68,10.7,70.8,1026.22,0,0,0,0,0.033989
2018/06/25 04:25:00.000,n,209,2.16,1.8,2.88,10.8,70.7,1026.22,0,0,0,0,0.032272
2018/06/25 04:26:00.000,n,152,2.52,1.08,3.96,10.8,70.7,1026.22,0,0,0,0,0.033989
2018/06/25 04:27:00.007,n,112,1.8,0.36,3.24,10.8,70.5,1026.22,0,0,0,0,0.02964
2018/06/25 04:28:00.004,n,161,4.68,2.16,5.4,10.8,70.6,1026.22,0,0,0,0,0.02964
2018/06/25 04:29:00.001,n,159,2.52,1.44,4.32,10.8,70.5,1026.22,0,0,0,0,0.02964
2018/06/25 04:30:00.015,n,56,0.72,0.36,1.44,10.8,70.5,1026.32,0,0,0,0,0.032272
2018/06/25 04:31:00.000,n,239,2.52,2.16,3.6,10.8,70.4,1026.32,0,0,0,0,0.032272
2018/06/25 04:32:00.000,n,251,4.68,4.32,5.04,10.9,70.2,1026.32,0,0,0,0,0.030518
2018/06/25 04:33:00.000,n,122,5.04,2.88,6.84,10.9,70,1026.32,0,0,0,0,0.032272
2018/06/25 04:34:00.003,n,153,3.6,2.88,4.32,10.9,69.8,1026.32,0,0,0,0,0.031395
2018/06/25 04:35:00.000,n,173,2.88,1.8,2.88,10.8,69.8,1026.32,0,0,0,0,0.033989
2018/06/25 04:36:00.000,n,134,1.08,0.36,1.8,10.8,69.8,1026.32,0,0,0,0,0.032272
2018/06/25 04:37:00.010,n,144,5.04,4.68,5.4,10.8,69.7,1026.32,0,0,0,0,0.03315
2018/06/25 04:38:00.008,n,208,3.96,1.8,6.48,10.8,69.9,1026.42,0,0,0,0,0.032272
2018/06/25 04:39:00.005,n,133,7.56,7.56,7.92,10.8,69.8,1026.42,0,0,0,0,0.031395
2018/06/25 04:40:00.000,n,165,5.04,4.32,5.4,10.8,69.8,1026.42,0,0,0,0,0.027924
2018/06/25 04:41:00.000,n,181,1.44,0.72,2.52,10.9,69.8,1026.42,0,0,0,0,0.02964
2018/06/25 04:42:00.000,n,150,3.96,3.6,5.04,10.9,69.8,1026.42,0,0,0,0,0.02964
2018/06/25 04:43:00.000,n,163,5.76,5.4,6.48,10.9,69.7,1026.42,0,0,0,0,0.027924
2018/06/25 04:44:00.007,n,163,6.48,5.76,7.2,10.8,69.7,1026.42,0,0,0,0,0.027924
2018/06/25 04:45:00.004,n,177,3.6,2.16,7.2,10.8,69.6,1026.42,0,0,0,0,0.030518
2018/06/25 04:46:00.001,n,158,6.12,5.4,7.92,10.8,69.7,1026.42,0,0,0,0,0.036621
2018/06/25 04:47:00.014,n,210,5.4,4.68,5.76,10.8,69.7,1026.42,0,0,0,0,0.033989
2018/06/25 04:48:00.012,n,266,4.68,3.96,5.04,10.8,69.8,1026.42,0,0,0,0,0.03315
2018/06/25 04:49:00.000,n,168,8.64,8.64,9,10.8,69.8,1026.42,0,0,0,0,0.030518
2018/06/25 04:50:00.000,n,123,3.96,2.52,5.4,10.8,69.9,1026.52,0,0,0,0,0.033989
2018/06/25 04:51:00.004,n,136,2.16,0.72,2.88,10.8,69.7,1026.52,0,0,0,0,0.02964
2018/06/25 04:52:00.001,n,80,2.16,1.8,3.24,10.9,69.7,1026.52,0,0,0,0,0.028801
2018/06/25 04:53:00.000,n,191,3.6,2.88,4.68,10.9,69.5,1026.52,0,0,0,0,0.02964
2018/06/25 04:54:00.000,n,153,7.92,3.6,11.52,10.9,69.2,1026.52,0,0,0,0,0.032272
2018/06/25 04:55:00.009,n,94,3.24,2.16,4.32,10.9,69.2,1026.52,0,0,0,0,0.032272
2018/06/25 04:56:00.006,n,143,3.96,2.52,4.68,10.9,69.2,1026.52,0,0,0,0,0.030518